This is the latest recevied weather packets stored in our database for station/object KM5VY. If no packets are shown the sender has not sent any weather packets the latest 10 day(s).
| Time | Temp. | Humidity | Pressure | Rain* | Wind** | Luminosity | Snow |
|---|---|---|---|---|---|---|---|
| 1777911970 | 18.33° C | 33% | 1016.3 hPa | 0 mm | - | - | - |
| 1777911368 | 17.78° C | 34% | 1016.3 hPa | 0 mm | - | - | - |
| 1777910767 | 17.22° C | 36% | 1016.3 hPa | 0 mm | - | - | - |
| 1777910166 | 16.11° C | 37% | 1016.3 hPa | 0 mm | - | - | - |
| 1777909565 | 15.56° C | 38% | 1016.3 hPa | 0 mm | - | - | - |
| 1777908964 | 15.56° C | 39% | 1016.6 hPa | 0 mm | - | - | - |
| 1777908363 | 15° C | 41% | 1016.6 hPa | 0 mm | - | - | - |
| 1777907762 | 13.89° C | 42% | 1016.9 hPa | 0 mm | - | - | - |
| 1777907161 | 13.89° C | 45% | 1017.6 hPa | 0 mm | - | - | - |
| 1777906560 | 13.33° C | 47% | 1018.3 hPa | 0 mm | - | - | - |
| 1777905960 | 12.78° C | 49% | 1017.9 hPa | 0 mm | - | - | - |
| 1777905358 | 12.22° C | 50% | 1017.3 hPa | 0 mm | - | - | - |
| 1777904757 | 12.22° C | 50% | 1016.6 hPa | 0 mm | - | - | - |
| 1777904344 | 11.67° C | 51% | 1016.3 hPa | 0 mm | - | - | - |
| 1777904156 | 11.67° C | 51% | 1016.3 hPa | 0 mm | - | - | - |
| 1777903555 | 11.67° C | 52% | 1015.6 hPa | 0 mm | - | - | - |
| 1777902955 | 11.11° C | 54% | 1014.9 hPa | 0 mm | - | - | - |
| 1777902353 | 10.56° C | 56% | 1015.6 hPa | 0 mm | - | - | - |
| 1777901151 | 10° C | 59% | 1015.9 hPa | 0 mm | - | - | - |
| 1777900790 | 10° C | 60% | 1015.9 hPa | 0 mm | - | - | - |
| 1777900551 | 10° C | 60% | 1015.9 hPa | 0 mm | - | - | - |
| 1777899949 | 10° C | 60% | 1015.9 hPa | 0 mm | - | - | - |
| 1777899348 | 10° C | 60% | 1015.9 hPa | 0 mm | - | - | - |
| 1777898185 | 10° C | 60% | 1015.9 hPa | 0 mm | - | - | - |
| 1777898147 | 10° C | 60% | 1015.9 hPa | 0 mm | - | - | - |
* Rain latest hour (hover to see other rain measurements)
** Current wind speed in m/s (hover to see current wind gust speed)